Regional Weather Roundup
Issued by NWS Charleston, SC

Home | Current Version | Previous Version | Text Only | Print | Product List | Glossary On
Versions: 1 2 3 4 5 6 7 8 9 10 11 12 13 14 15 16 17 18 19 20 21 22 23 24 25 26 27 28 29 30 31 32 33 34 35 36 37 38 39 40 41 42 43 44 45 46 47 48 49 50
000
ASUS42 KCHS 291328
RWRCHS

REGIONAL WEATHER ROUNDUP
NATIONAL WEATHER SERVICE CHARLESTON SC
900 AM EDT FRI APR 29 2016

NOTE: "FAIR" INDICATES FEW OR NO CLOUDS BELOW 12,000 FEET WITH NO
SIGNIFICANT WEATHER AND/OR OBSTRUCTIONS TO VISIBILITY.

NOT ALL STATIONS ARE QUALITY CONTROLLED. USE DATA WITH CAUTION...
ESPECIALLY DEWPOINT OBSERVATIONS.

SCZ027-030-031-034>040-042>050-291400-
...SOUTHEAST SOUTH CAROLINA...

CITY           SKY/WX    TMP DP  RH WIND       PRES   REMARKS
N CHARLESTON   SUNNY     74  68  81 NW8       29.97S
WATERFRONT PRK   N/A     73  69  87 W7        29.95R
MOUNT PLEASANT FAIR      75  68  78 NW8       29.97S
JOHNS ISLAND   FAIR      79  70  73 NW10      29.97S
PINOPOLIS        N/A     75  70  83 W6        29.91R
MONCKS CORNER  FAIR      72  63  73 NW5       29.97F
SUMMERVILLE    FAIR      73  72  94 CALM      29.99S
BEAUFORT MCAS  SUNNY     75  69  81 VRB7      29.99S
BEAUFORT ARPT  FAIR      77  68  73 NW8       29.98S
HILTON HEAD IS SUNNY     81  70  69 W7        30.00S
WALTERBORO     SUNNY     77  68  73 NW6       29.99S
ALLENDALE      FAIR      75  66  73 NW6       29.99S

...SOUTHERN MIDLANDS AND PEE DEE...

CITY           SKY/WX    TMP DP  RH WIND       PRES   REMARKS
GEORGETOWN     FAIR      73  66  78 NW7       29.97S
KINGSTREE      FAIR      72  64  78 NW3       29.97S
ORANGEBURG     SUNNY     74  65  73 NW7       29.99R
BARNWELL       FAIR      79  70  73 NW5       30.00S
AIKEN          FAIR      73  57  56 N8        30.04S
MANNING        NOT AVBL
COLUMBIA       MOSUNNY   77  60  55 NW5       29.98S
SUMTER         SUNNY     72  62  71 N5        29.96S
FLORENCE       CLOUDY    68  66  93 N9        29.98R FOG
MYRTLE BEACH   SUNNY     72  63  73 NW12      29.97R
N MYRTLE BEACH PTSUNNY   71  67  87 N7        29.95R

$$

GAZ063-065-086>088-099>101-113>116-118-119-134>141-150-291400-
...SOUTHEAST GEORGIA...

CITY           SKY/WX    TMP DP  RH WIND       PRES   REMARKS
SAVANNAH ARPT  MOSUNNY   75  68  78 W9        30.00S
HUNTER AAF     SUNNY     75  71  87 NW8       29.97S
FORT STEWART   SUNNY     74  69  82 VRB2      29.98S
STATESBORO     SUNNY     78  73  83 NW5       30.00F
SYLVANIA       SUNNY     76  71  83 NW7       30.01S
CLAXTON        FAIR      75  71  87 W6        30.01S

...CSRA...CENTRAL AND FAR SOUTHEAST GEORGIA...

CITY           SKY/WX    TMP DP  RH WIND       PRES   REMARKS
THOMSON        SUNNY     74  67  78 N3        30.06S
AUGUSTA-BUSH   SUNNY     74  65  73 N7        30.00R
AUGUSTA-DANIEL SUNNY     75  62  64 NW9       30.02R
SWAINSBORO     FAIR      73  68  83 NW5       30.02S
VIDALIA        SUNNY     73  70  88 NW3       30.01F
EASTMAN        FAIR      75  75 100 N3        30.04S
HAZLEHURST     FAIR      75  73  93 NW3       30.01F
ALMA           MOSUNNY   73  71  93 NW6       30.02S
WAYCROSS       CLOUDY    75  72  91 W5        30.02S
JESUP          CLOUDY    77  73  88 NW8       30.02S
BAXLEY         CLOUDY    73  73 100 W3        30.01F
BRUNSWICK      PTSUNNY   70  66  88 NW7       30.02F
SAINT SIMONS   CLOUDY    72  71  97 MISG      30.01S

$$

SCZ027-028-034-036>038-045-046-048>050-GAZ119-141-291400-
...LAKE AND SUPPLEMENTAL COASTAL OBSERVATIONS...

STATION/POSITION TIME  TEMP    WIND        PRES    WAVE   SWELL
                       AIR SEA DIR/SP/G            HT/PER HT/PER/DIR
                 (UTC) (F)     (DEG/KT/KT) (MB)    (FT/S) (FT/S/D)
WINYAH BAY       1245   72     310/  8     1014.0R
LAKE MURRAY      1200   70      CALM  /  4 1014.9R
ACE BASIN NERRS  1200   72     270/  2     1015.0S
FORT PULASKI     1300   74 71  300/ 10/ 12 1015.9R
SAPELO ISLAND    1245   71     290/  7     1016.0S

$$

ANZ835-935-AMZ111-154-330-350-352-354-370-450-454-472-291400-
...C-MAN AND BUOY OBSERVATIONS...

STATION/POSITION TIME  TEMP    WIND        PRES    WAVE   SWELL
                       AIR SEA DIR/SP/G            HT/PER HT/PER/DIR
                 (UTC) (F)     (DEG/KT/KT) (MB)    (FT/S) (FT/S/D)
BUOY 41004       1250   72 71  270/ 12/ 16 1014.0R   3/ 4   2/ 9
BUOY 41008       NOT AVBL
FOLLY BEACH CMAN 1300   75     300/  5/  9 1014.9R
CAPERS NEARSHORE 1208   71 69  290/ 10/ 12 1014.3R
FRIPP NEARSHORE  1308   73 71  310/ 10/ 14 1014.4F


STATION/POSITION TIME  TEMP    WIND        PRES    WAVE   SWELL
                       AIR SEA DIR/SP/G            HT/PER HT/PER/DIR
                 (UTC) (F)     (DEG/KT/KT) (MB)    (FT/S) (FT/S/D)
5E ST. MARYS GA  1221      71                N/A     2/11
FRYING PAN BUOY  1300   69 69  290/ 10/ 14 1013.5R
BUOY 41025       1250   63 71   20/ 14/ 16 1013.4R   3/ 6   2/110/10
CAPE LOOKOUT NC  1300   66      10/  8/ 10 1013.6R
BUOY 41002       1250   71 71  200/ 14/ 17 1015.2R   3/10   2/ 50/10
BUOY 41010       1220   76 76  210/ 10/ 12 1016.5R
ST AUGUSTINE FL  1300   74 69  290/  7/  8 1017.5R


$$




USA.gov is the U.S. government's official web portal to all federal, state and local government web resources and services.